Location: Guilderland
(42.7045°N, 73.9115°W)
Time: 18:40:53
(UTC+00:00)

YAOGAN 1 - Pass Details

Date: 24 January 2020
Orbit: 619 x 621 km, 98.0° (Epoch: 26 February)

Event Time Altitude Azimuth Distance (km) Brightness Sun altitude
Rises 22:28:35 0° 132° (SE) 2,887 5.7 -6.0°
Reaches altitude 10° 22:31:06 10° 118° (ESE) 1,986 4.8 -6.4°
Maximum altitude 22:34:29 23° 66° (ENE) 1,336 3.7 -7.0°
Drops below altitude 10° 22:37:53 10° 15° (NNE) 1,997 4.8 -7.6°
Sets 22:40:25 0° 1° (N) 2,908 5.8 -8.1°
